When you browse on this site, cookies collect data to enhance your experience and personalize the content and advertising you see.
Visit our Privacy Policy to learn more. By continuing to use the site, you agree to this use of cookies and data.
  • In Denmark
  • List of Countries
  • For 7 days
  • Water Temperature
  • Weather Map
  • Weather Widgets
  • user-avatar
    Login

    Hourly Weather Armawir

    Today, 17 August, Saturday

    Time Temperature Precipitation Wind Pressure Humidity
    00:00 +31°C° 0 mm 3 mps 685 mmHg 39%
    01:00 +29°C° 0 mm 3 mps 685 mmHg 44%
    02:00 +28°C° 0 mm 2 mps 685 mmHg 49%
    03:00 +27°C° 0 mm 2 mps 684 mmHg 56%
    04:00 +27°C° 0 mm 2 mps 684 mmHg 56%
    05:00 +27°C° 0 mm 2 mps 685 mmHg 56%
    06:00 +27°C° 0 mm 2 mps 685 mmHg 56%
    07:00 +29°C° 0 mm 2 mps 685 mmHg 49%
    08:00 +31°C° 0 mm 2 mps 685 mmHg 42%
    09:00 +35°C° 0 mm 2 mps 686 mmHg 35%
    10:00 +36°C° 0 mm 2 mps 686 mmHg 31%
    11:00 +38°C° 0 mm 2 mps 685 mmHg 26%
    12:00 +40°C° 0 mm 2 mps 685 mmHg 22%
    13:00 +40°C° 0.1 mm 4 mps 685 mmHg 24%
    14:00 +39°C° 0.1 mm 5 mps 684 mmHg 26%
    15:00 +38°C° 0.1 mm 7 mps 684 mmHg 27%
    16:00 +36°C° 0.1 mm 6 mps 684 mmHg 28%
    17:00 +35°C° 0.1 mm 6 mps 684 mmHg 29%
    18:00 +35°C° 0.1 mm 5 mps 684 mmHg 31%
    19:00 +33°C° 0 mm 5 mps 684 mmHg 34%
    20:00 +32°C° 0 mm 4 mps 685 mmHg 38%
    21:00 +30°C° 0 mm 3 mps 685 mmHg 42%
    22:00 +29°C° 0 mm 3 mps 685 mmHg 45%
    23:00 +28°C° 0 mm 3 mps 685 mmHg 48%

    Tomorrow, 18 August, Sunday

    Time Temperature Precipitation Wind Pressure Humidity
    00:00 +27°C° 0 mm 2 mps 685 mmHg 50%
    01:00 +26°C° 0 mm 2 mps 685 mmHg 51%
    02:00 +26°C° 0 mm 2 mps 685 mmHg 51%
    03:00 +25°C° 0 mm 2 mps 685 mmHg 52%
    04:00 +25°C° 0 mm 2 mps 685 mmHg 51%
    05:00 +25°C° 0 mm 2 mps 685 mmHg 50%
    06:00 +25°C° 0 mm 2 mps 685 mmHg 49%
    07:00 +28°C° 0 mm 2 mps 685 mmHg 43%
    08:00 +30°C° 0 mm 2 mps 686 mmHg 37%
    09:00 +32°C° 0 mm 2 mps 686 mmHg 31%
    10:00 +35°C° 0 mm 3 mps 686 mmHg 27%
    11:00 +37°C° 0 mm 4 mps 686 mmHg 22%
    12:00 +40°C° 0 mm 5 mps 686 mmHg 18%
    13:00 +41°C° 0 mm 5 mps 686 mmHg 16%
    14:00 +42°C° 0 mm 6 mps 686 mmHg 14%
    15:00 +44°C° 0 mm 6 mps 686 mmHg 11%
    16:00 +41°C° 0 mm 5 mps 686 mmHg 14%
    17:00 +40°C° 0 mm 4 mps 686 mmHg 18%
    18:00 +37°C° 0 mm 3 mps 686 mmHg 21%
    19:00 +35°C° 0 mm 3 mps 686 mmHg 25%
    20:00 +33°C° 0 mm 3 mps 687 mmHg 29%
    21:00 +30°C° 0 mm 2 mps 687 mmHg 33%
    22:00 +29°C° 0 mm 2 mps 687 mmHg 35%
    23:00 +27°C° 0 mm 3 mps 687 mmHg 37%

    Day after tomorrow, 19 August, Monday

    Time Temperature Precipitation Wind Pressure Humidity
    00:00 +26°C° 0 mm 3 mps 687 mmHg 39%
    01:00 +25°C° 0 mm 3 mps 687 mmHg 39%
    02:00 +25°C° 0 mm 2 mps 687 mmHg 39%
    03:00 +24°C° 0 mm 2 mps 687 mmHg 39%
    04:00 +24°C° 0 mm 2 mps 687 mmHg 38%
    05:00 +24°C° 0 mm 2 mps 688 mmHg 37%
    06:00 +24°C° 0 mm 2 mps 688 mmHg 37%
    07:00 +27°C° 0 mm 2 mps 688 mmHg 32%
    08:00 +29°C° 0 mm 2 mps 689 mmHg 27%
    09:00 +32°C° 0 mm 2 mps 689 mmHg 22%
    10:00 +35°C° 0 mm 2 mps 689 mmHg 19%
    11:00 +37°C° 0 mm 3 mps 689 mmHg 16%
    12:00 +39°C° 0 mm 3 mps 689 mmHg 14%
    13:00 +42°C° 0 mm 4 mps 689 mmHg 12%
    14:00 +43°C° 0 mm 5 mps 689 mmHg 11%
    15:00 +45°C° 0 mm 6 mps 689 mmHg 9%
    16:00 +43°C° 0 mm 5 mps 690 mmHg 11%
    17:00 +42°C° 0 mm 4 mps 690 mmHg 13%
    18:00 +40°C° 0 mm 4 mps 690 mmHg 16%
    19:00 +36°C° 0 mm 3 mps 690 mmHg 21%
    20:00 +33°C° 0 mm 3 mps 690 mmHg 27%
    21:00 +29°C° 0 mm 2 mps 690 mmHg 32%
    22:00 +27°C° 0 mm 2 mps 690 mmHg 33%
    23:00 +26°C° 0 mm 2 mps 690 mmHg 34%

    20 August, Tuesday

    Time Temperature Precipitation Wind Pressure Humidity
    00:00 +25°C° 0 mm 3 mps 690 mmHg 34%
    01:00 +25°C° 0 mm 2 mps 690 mmHg 34%
    02:00 +24°C° 0 mm 2 mps 690 mmHg 34%
    03:00 +23°C° 0 mm 2 mps 690 mmHg 33%
    04:00 +23°C° 0 mm 2 mps 690 mmHg 32%
    05:00 +23°C° 0 mm 2 mps 690 mmHg 31%
    06:00 +23°C° 0 mm 2 mps 690 mmHg 30%
    07:00 +26°C° 0 mm 1 mps 691 mmHg 26%
    08:00 +29°C° 0 mm 1 mps 691 mmHg 22%
    09:00 +32°C° 0 mm 1 mps 691 mmHg 18%
    10:00 +35°C° 0 mm 2 mps 691 mmHg 16%
    11:00 +36°C° 0 mm 2 mps 691 mmHg 15%
    12:00 +38°C° 0 mm 3 mps 691 mmHg 14%
    13:00 +39°C° 0 mm 3 mps 691 mmHg 12%
    14:00 +42°C° 0 mm 3 mps 691 mmHg 11%
    15:00 +43°C° 0 mm 4 mps 691 mmHg 10%
    16:00 +42°C° 0 mm 4 mps 690 mmHg 12%
    17:00 +41°C° 0 mm 5 mps 690 mmHg 13%
    18:00 +40°C° 0 mm 5 mps 690 mmHg 15%
    19:00 +36°C° 0 mm 4 mps 690 mmHg 20%
    20:00 +33°C° 0 mm 4 mps 690 mmHg 25%
    21:00 +29°C° 0 mm 3 mps 690 mmHg 30%
    22:00 +27°C° 0 mm 2 mps 690 mmHg 32%
    23:00 +26°C° 0 mm 2 mps 689 mmHg 33%

    21 August, Wednesday

    Time Temperature Precipitation Wind Pressure Humidity
    00:00 +24°C° 0 mm 1 mps 689 mmHg 34%
    01:00 +24°C° 0 mm 2 mps 689 mmHg 34%
    02:00 +23°C° 0 mm 2 mps 689 mmHg 34%
    03:00 +23°C° 0 mm 2 mps 689 mmHg 34%
    04:00 +23°C° 0 mm 1 mps 689 mmHg 33%
    05:00 +23°C° 0 mm 1 mps 689 mmHg 33%
    06:00 +23°C° 0 mm 1 mps 689 mmHg 33%
    07:00 +26°C° 0 mm 1 mps 690 mmHg 28%
    08:00 +29°C° 0 mm 1 mps 690 mmHg 23%
    09:00 +32°C° 0 mm 1 mps 690 mmHg 18%
    10:00 +34°C° 0 mm 2 mps 690 mmHg 17%
    11:00 +36°C° 0 mm 2 mps 690 mmHg 15%
    12:00 +38°C° 0 mm 3 mps 690 mmHg 13%
    13:00 +39°C° 0 mm 3 mps 690 mmHg 12%
    14:00 +41°C° 0 mm 4 mps 689 mmHg 11%
    15:00 +42°C° 0 mm 4 mps 689 mmHg 10%
    16:00 +41°C° 0 mm 4 mps 689 mmHg 12%
    17:00 +40°C° 0 mm 4 mps 689 mmHg 14%
    18:00 +39°C° 0 mm 5 mps 688 mmHg 15%
    19:00 +35°C° 0 mm 4 mps 688 mmHg 21%
    20:00 +32°C° 0 mm 4 mps 688 mmHg 27%
    21:00 +29°C° 0 mm 3 mps 688 mmHg 33%
    22:00 +27°C° 0 mm 3 mps 688 mmHg 35%
    23:00 +26°C° 0 mm 2 mps 688 mmHg 37%

    22 August, Thursday

    Time Temperature Precipitation Wind Pressure Humidity
    00:00 +24°C° 0 mm 1 mps 688 mmHg 39%
    01:00 +24°C° 0 mm 1 mps 688 mmHg 39%
    02:00 +23°C° 0 mm 2 mps 687 mmHg 40%
    03:00 +21°C° 0 mm 2 mps 687 mmHg 41%
    04:00 +22°C° 0 mm 1 mps 687 mmHg 40%
    05:00 +22°C° 0 mm 1 mps 687 mmHg 39%
    06:00 +22°C° 0 mm 1 mps 687 mmHg 39%
    07:00 +25°C° 0 mm 1 mps 688 mmHg 33%
    08:00 +28°C° 0 mm 1 mps 688 mmHg 27%
    09:00 +31°C° 0 mm 2 mps 688 mmHg 22%
    10:00 +34°C° 0 mm 2 mps 688 mmHg 19%
    11:00 +36°C° 0 mm 3 mps 688 mmHg 16%
    12:00 +38°C° 0 mm 4 mps 687 mmHg 13%
    13:00 +40°C° 0 mm 4 mps 687 mmHg 12%
    14:00 +41°C° 0 mm 4 mps 687 mmHg 11%
    15:00 +43°C° 0 mm 4 mps 687 mmHg 9%
    16:00 +41°C° 0 mm 5 mps 687 mmHg 11%
    17:00 +40°C° 0 mm 5 mps 686 mmHg 14%
    18:00 +39°C° 0 mm 5 mps 686 mmHg 16%
    19:00 +35°C° 0 mm 5 mps 686 mmHg 21%
    20:00 +32°C° 0 mm 4 mps 686 mmHg 26%
    21:00 +28°C° 0 mm 4 mps 687 mmHg 31%
    22:00 +27°C° 0 mm 3 mps 686 mmHg 34%
    23:00 +25°C° 0 mm 2 mps 686 mmHg 36%
    Show more